Regional Weather Roundup
Issued by NWS

Home | Current Version | Previous Version | Graphics & Text | Print | Product List | Glossary Off
Versions: 1 2 3 4 5 6 7 8 9 10 11 12 13 14 15 16 17 18 19 20 21 22 23 24 25 26 27 28 29 30 31 32 33 34 35 36 37 38 39 40 41 42 43 44 45 46 47 48 49 50

528
ASUS43 KLSX 240757
RWRMO

WEATHER SUMMARY FOR MISSOURI
NATIONAL WEATHER SERVICE SPRINGFIELD MO
300 AM CDT WED MAY 24 2017

NOTE: "FAIR" INDICATES FEW OR NO CLOUDS BELOW 12,000 FEET WITH NO
       SIGNIFICANT WEATHER AND/OR OBSTRUCTIONS TO VISIBILITY.
       CURRENT SKY AND/OR WEATHER CONDITIONS ARE NOT AVAILABLE FOR
       CHILLICOTHE AND FARMINGTON.

MOZ001>031-035>038-043-044-053-054-240900-
...NORTHERN AND WESTERN MISSOURI...

CITY           SKY/WX    TMP DP  RH WIND       PRES   REMARKS
KANSAS CTY INT CLEAR     49  46  90 NW8       29.74F
LEE`S SUMMIT   CLEAR     50  47  89 NW8       29.74F
ST JOSEPH      CLEAR     50  48  93 NW12      29.75F
CHILLICOTHE      N/A     49  46  90 W5        29.72F

$$
MOZ066>068-077>081-088>096-101>105-240900-
...SOUTHWEST MISSOURI...

CITY           SKY/WX    TMP DP  RH WIND       PRES   REMARKS
SPRINGFIELD    MOCLDY    53  49  86 NW7       29.71F
JOPLIN         CLOUDY    55  49  80 NW7       29.75F

$$
MOZ032>034-039>042-045>050-055>058-069>072-240900-
...CENTRAL MISSOURI...

CITY           SKY/WX    TMP DP  RH WIND       PRES   REMARKS
COLUMBIA       NOT AVBL
JEFFERSON CITY CLOUDY    55  48  77 NW3       29.68F
ROLLA          CLEAR     49  47  93 NW6       29.66F
SEDALIA        MOCLDY    54  52  93 NW10      29.72F
WARRENSBURG    PTCLDY    50  46  87 W3        29.73F

$$
MOZ051-052-059>065-240900-
...EAST CENTRAL MISSOURI...

CITY           SKY/WX    TMP DP  RH WIND       PRES   REMARKS
ST LOUIS INTL  PTCLDY    55  50  83 NW5       29.64F

$$
MOZ072>076-082>087-097>100-106>115-240900-
...SOUTH CENTRAL AND SOUTHEAST MISSOURI...

CITY           SKY/WX    TMP DP  RH WIND       PRES   REMARKS
CAPE GIRARDEAU CLOUDY    59  54  83 NW5       29.62F
POPLAR BLUFF   CLOUDY    59  57  93 W5        29.63F
WEST PLAINS    PTCLDY    51  48  89 NW5       29.68F

$$



USA.gov is the U.S. government's official web portal to all federal, state and local government web resources and services.